{"data":{"norad_id":48963,"epoch":"2026-05-25T03:44:21.966720Z","epoch_age_seconds":64786,"freshness":"FRESH","line1":"1 48963U 21059CN  26145.15580980  .00203678  00000+0  72756-3 0  9996","line2":"2 48963  97.6769 341.2220 0000798 105.3969 254.7390 15.88341898274140","mean_motion":15.88341898,"eccentricity":7.98e-5,"inclination_deg":97.6769,"raan_deg":341.222,"arg_perigee_deg":105.3969,"mean_anomaly_deg":254.739,"bstar":0.00072756,"rev_number":27414,"period_min":90.660581441138,"perigee_km":306.39779910254,"apogee_km":307.46473599804,"semimajor_km":6685.0682675503,"source":"CELESTRAK","updated_at":"2026-05-25T13:37:56.979171Z"}}